Location: Melque
(41.0517°N, 4.4694°W)
Time: 19:39:51
(UTC+00:00)

NOSS 3-2 (C) - Pass Details

Date: 11 December 2025
Orbit: 672 x 1536 km, 63.4° (Epoch: 02 January)

Event Time Altitude Azimuth Distance (km) Brightness Sun altitude
Rises 17:29:04 0° 224° (SW) 3,048 7.6 -7.5°
Reaches altitude 10° 17:31:17 10° 229° (SW) 2,180 6.8 -7.8°
Maximum altitude 17:36:08 60° 309° (NW) 890 3.5 -8.7°
Drops below altitude 10° 17:41:53 10° 29° (NNE) 2,577 5.3 -9.7°
Enters shadow 17:43:09 - 32° (NNE) 3,055 5.6 -9.9°
